Year,Month,Day,Hour,Minute,Value (Times are PST for temperature in C)
2009,09,15,00,00,11.50
2009,09,15,00,01,11.50
2009,09,15,00,02,11.40
2009,09,15,00,03,11.40
2009,09,15,00,04,11.40
2009,09,15,00,05,11.40
2009,09,15,00,06,11.40
2009,09,15,00,07,11.40
2009,09,15,00,08,11.40
2009,09,15,00,09,11.40
2009,09,15,00,10,11.40
2009,09,15,00,11,11.40
2009,09,15,00,12,11.40
2009,09,15,00,13,11.40
2009,09,15,00,14,11.40
2009,09,15,00,15,11.40
2009,09,15,00,16,11.40
2009,09,15,00,17,11.40
2009,09,15,00,18,11.40
2009,09,15,00,19,11.30
2009,09,15,00,20,11.30
2009,09,15,00,21,11.30
2009,09,15,00,22,11.30
2009,09,15,00,23,11.30
2009,09,15,00,24,11.30
2009,09,15,00,25,11.30
2009,09,15,00,26,11.30
2009,09,15,00,27,11.30
2009,09,15,00,28,11.30
2009,09,15,00,29,11.30
2009,09,15,00,30,11.30
2009,09,15,00,31,11.30
2009,09,15,00,32,11.30
2009,09,15,00,33,11.30
2009,09,15,00,34,11.30
2009,09,15,00,35,11.30
2009,09,15,00,36,11.30
2009,09,15,00,37,11.30
2009,09,15,00,38,11.30
2009,09,15,00,39,11.30
2009,09,15,00,40,11.30
2009,09,15,00,41,11.30
2009,09,15,00,42,11.30
2009,09,15,00,43,11.30
2009,09,15,00,44,11.30
2009,09,15,00,45,11.30
2009,09,15,00,46,11.20
2009,09,15,00,47,11.20
2009,09,15,00,48,11.20
2009,09,15,00,49,11.20
2009,09,15,00,50,11.20
2009,09,15,00,51,11.20
2009,09,15,00,52,11.20
2009,09,15,00,53,11.20
2009,09,15,00,54,11.10
2009,09,15,00,55,11.10
2009,09,15,00,56,11.10
2009,09,15,00,57,11.10
2009,09,15,00,58,11.00
2009,09,15,00,59,11.00
2009,09,15,01,00,11.00
2009,09,15,01,01,10.90
2009,09,15,01,02,10.90
2009,09,15,01,03,10.90
2009,09,15,01,04,10.90
2009,09,15,01,05,10.90
2009,09,15,01,06,10.80
2009,09,15,01,07,10.80
2009,09,15,01,08,10.80
2009,09,15,01,09,10.80
2009,09,15,01,10,10.80
2009,09,15,01,11,10.80
2009,09,15,01,12,10.80
2009,09,15,01,13,10.80
2009,09,15,01,14,10.80
2009,09,15,01,15,10.80
2009,09,15,01,16,10.80
2009,09,15,01,17,10.80
2009,09,15,01,18,10.80
2009,09,15,01,19,10.80
2009,09,15,01,20,10.80
2009,09,15,01,21,10.80
2009,09,15,01,22,10.80
2009,09,15,01,23,10.80
2009,09,15,01,24,10.80
2009,09,15,01,25,10.80
2009,09,15,01,26,10.80
2009,09,15,01,27,10.80
2009,09,15,01,28,10.80
2009,09,15,01,29,10.80
2009,09,15,01,30,10.70
2009,09,15,01,31,10.70
2009,09,15,01,32,10.70
2009,09,15,01,33,10.70
2009,09,15,01,34,10.70
2009,09,15,01,35,10.70
2009,09,15,01,36,10.70
2009,09,15,01,37,10.70
2009,09,15,01,38,10.70
2009,09,15,01,39,10.70
2009,09,15,01,40,10.70
2009,09,15,01,41,10.70
2009,09,15,01,42,10.70
2009,09,15,01,43,10.70
2009,09,15,01,44,10.60
2009,09,15,01,45,10.60
2009,09,15,01,46,10.60
2009,09,15,01,47,10.60
2009,09,15,01,48,10.60
2009,09,15,01,49,10.60
2009,09,15,01,50,10.60
2009,09,15,01,51,10.60
2009,09,15,01,52,10.60
2009,09,15,01,53,10.60
2009,09,15,01,54,10.60
2009,09,15,01,55,10.50
2009,09,15,01,56,10.50
2009,09,15,01,57,10.40
2009,09,15,01,58,10.40
2009,09,15,01,59,10.40
2009,09,15,02,00,10.40
2009,09,15,02,01,10.40
2009,09,15,02,02,10.40
2009,09,15,02,03,10.40
2009,09,15,02,04,10.40
2009,09,15,02,05,10.40
2009,09,15,02,06,10.40
2009,09,15,02,07,10.40
2009,09,15,02,08,10.40
2009,09,15,02,09,10.40
2009,09,15,02,10,10.40
2009,09,15,02,11,10.30
2009,09,15,02,12,10.30
2009,09,15,02,13,10.30
2009,09,15,02,14,10.30
2009,09,15,02,15,10.30
2009,09,15,02,16,10.30
2009,09,15,02,17,10.30
2009,09,15,02,18,10.30
2009,09,15,02,19,10.30
2009,09,15,02,20,10.30
2009,09,15,02,21,10.30
2009,09,15,02,22,10.30
2009,09,15,02,23,10.30
2009,09,15,02,24,10.30
2009,09,15,02,25,10.30
2009,09,15,02,26,10.30
2009,09,15,02,27,10.30
2009,09,15,02,28,10.30
2009,09,15,02,29,10.30
2009,09,15,02,30,10.30
2009,09,15,02,31,10.20
2009,09,15,02,32,10.20
2009,09,15,02,33,10.20
2009,09,15,02,34,10.20
2009,09,15,02,35,10.20
2009,09,15,02,36,10.20
2009,09,15,02,37,10.20
2009,09,15,02,38,10.20
2009,09,15,02,39,10.20
2009,09,15,02,40,10.20
2009,09,15,02,41,10.10
2009,09,15,02,42,10.10
2009,09,15,02,43,10.10
2009,09,15,02,44,10.10
2009,09,15,02,45,10.10
2009,09,15,02,46,10.10
2009,09,15,02,47,10.10
2009,09,15,02,48,10.10
2009,09,15,02,49,10.10
2009,09,15,02,50,10.10
2009,09,15,02,51,10.10
2009,09,15,02,52,10.10
2009,09,15,02,53,10.00
2009,09,15,02,54,10.00
2009,09,15,02,55,10.00
2009,09,15,02,56,10.00
2009,09,15,02,57,10.00
2009,09,15,02,58,10.00
2009,09,15,02,59,10.00
2009,09,15,03,00,10.00
2009,09,15,03,01,10.00
2009,09,15,03,02,10.00
2009,09,15,03,03,9.90
2009,09,15,03,04,9.90
2009,09,15,03,05,9.90
2009,09,15,03,06,9.90
2009,09,15,03,07,9.90
2009,09,15,03,08,9.90
2009,09,15,03,09,9.90
2009,09,15,03,10,9.90
2009,09,15,03,11,9.90
2009,09,15,03,12,9.90
2009,09,15,03,13,9.90
2009,09,15,03,14,10.00
2009,09,15,03,15,10.00
2009,09,15,03,16,10.00
2009,09,15,03,17,10.00
2009,09,15,03,18,10.00
2009,09,15,03,19,10.00
2009,09,15,03,20,10.00
2009,09,15,03,21,10.00
2009,09,15,03,22,10.00
2009,09,15,03,23,10.00
2009,09,15,03,24,10.00
2009,09,15,03,25,10.00
2009,09,15,03,26,9.90
2009,09,15,03,27,9.90
2009,09,15,03,28,9.90
2009,09,15,03,29,9.90
2009,09,15,03,30,9.90
2009,09,15,03,31,9.90
2009,09,15,03,32,9.90
2009,09,15,03,33,9.90
2009,09,15,03,34,9.90
2009,09,15,03,35,9.90
2009,09,15,03,36,9.80
2009,09,15,03,37,9.80
2009,09,15,03,38,9.80
2009,09,15,03,39,9.80
2009,09,15,03,40,9.80
2009,09,15,03,41,9.80
2009,09,15,03,42,9.80
2009,09,15,03,43,9.80
2009,09,15,03,44,9.80
2009,09,15,03,45,9.80
2009,09,15,03,46,9.80
2009,09,15,03,47,9.80
2009,09,15,03,48,9.80
2009,09,15,03,49,9.80
2009,09,15,03,50,9.80
2009,09,15,03,51,9.80
2009,09,15,03,52,9.80
2009,09,15,03,53,9.80
2009,09,15,03,54,9.80
2009,09,15,03,55,9.80
2009,09,15,03,56,9.80
2009,09,15,03,57,9.80
2009,09,15,03,58,9.80
2009,09,15,03,59,9.80
2009,09,15,04,00,9.80
2009,09,15,04,01,9.80
2009,09,15,04,02,9.80
2009,09,15,04,03,9.80
2009,09,15,04,04,9.80
2009,09,15,04,18,9.80
2009,09,15,04,19,9.80
2009,09,15,04,20,9.80
2009,09,15,04,21,9.80
2009,09,15,04,22,9.80
2009,09,15,04,23,9.80
2009,09,15,04,24,9.80
2009,09,15,04,25,9.80
2009,09,15,04,26,9.80
2009,09,15,04,27,9.80
2009,09,15,04,28,9.80
2009,09,15,04,29,9.80
2009,09,15,04,30,9.80
2009,09,15,04,31,9.80
2009,09,15,04,32,9.80
2009,09,15,04,33,9.90
2009,09,15,04,34,9.90
2009,09,15,04,35,9.90
2009,09,15,04,36,9.90
2009,09,15,04,37,9.90
2009,09,15,04,38,9.90
2009,09,15,04,39,9.90
2009,09,15,04,40,9.90
2009,09,15,04,41,9.90
2009,09,15,04,42,9.90
2009,09,15,04,43,9.90
2009,09,15,04,44,9.90
2009,09,15,04,45,9.90
2009,09,15,04,46,9.90
2009,09,15,04,47,9.90
2009,09,15,04,48,9.90
2009,09,15,04,49,9.90
2009,09,15,04,50,9.90
2009,09,15,04,51,9.90
2009,09,15,04,52,9.90
2009,09,15,04,53,9.90
2009,09,15,04,54,9.80
2009,09,15,04,55,9.80
2009,09,15,04,56,9.90
2009,09,15,04,57,9.90
2009,09,15,04,58,9.90
2009,09,15,04,59,9.90
2009,09,15,05,00,9.90
2009,09,15,05,01,10.00
2009,09,15,05,02,10.00
2009,09,15,05,03,10.00
2009,09,15,05,04,10.00
2009,09,15,05,05,10.00
2009,09,15,05,06,9.90
2009,09,15,05,07,9.90
2009,09,15,05,08,9.90
2009,09,15,05,09,9.90
2009,09,15,05,10,9.90
2009,09,15,05,11,9.90
2009,09,15,05,12,9.90
2009,09,15,05,13,9.90
2009,09,15,05,14,9.80
2009,09,15,05,15,9.80
2009,09,15,05,16,9.80
2009,09,15,05,17,9.80
2009,09,15,05,18,9.80
2009,09,15,05,19,9.80
2009,09,15,05,20,9.80
2009,09,15,05,21,9.80
2009,09,15,05,22,9.80
2009,09,15,05,23,9.80
2009,09,15,05,24,9.80
2009,09,15,05,25,9.80
2009,09,15,05,26,9.80
2009,09,15,05,27,9.80
2009,09,15,05,28,9.80
2009,09,15,05,29,9.90
2009,09,15,05,30,9.90
2009,09,15,05,31,9.90
2009,09,15,05,32,9.90
2009,09,15,05,33,9.90
2009,09,15,05,34,9.90
2009,09,15,05,35,9.90
2009,09,15,05,36,9.90
2009,09,15,05,37,9.90
2009,09,15,05,38,9.90
2009,09,15,05,39,9.90
2009,09,15,05,40,9.90
2009,09,15,05,41,9.90
2009,09,15,05,42,9.90
2009,09,15,05,43,9.90
2009,09,15,05,44,9.90
2009,09,15,05,45,9.90
2009,09,15,05,46,9.90
2009,09,15,05,47,10.00
2009,09,15,05,48,10.00
2009,09,15,05,49,10.00
2009,09,15,05,50,10.00
2009,09,15,05,51,10.00
2009,09,15,05,52,10.10
2009,09,15,05,53,10.10
2009,09,15,05,54,10.10
2009,09,15,05,55,10.10
2009,09,15,05,56,10.10
2009,09,15,05,57,10.10
2009,09,15,05,58,10.10
2009,09,15,05,59,10.20
2009,09,15,06,00,10.20
2009,09,15,06,01,10.20
2009,09,15,06,02,10.20
2009,09,15,06,03,10.20
2009,09,15,06,04,10.20
2009,09,15,06,05,10.20
2009,09,15,06,06,10.20
2009,09,15,06,07,10.20
2009,09,15,06,08,10.20
2009,09,15,06,09,10.20
2009,09,15,06,10,10.20
2009,09,15,06,11,10.20
2009,09,15,06,12,10.20
2009,09,15,06,13,10.20
2009,09,15,06,14,10.20
2009,09,15,06,15,10.30
2009,09,15,06,16,10.30
2009,09,15,06,17,10.30
2009,09,15,06,18,10.30
2009,09,15,06,19,10.30
2009,09,15,06,20,10.30
2009,09,15,06,21,10.30
2009,09,15,06,22,10.30
2009,09,15,06,23,10.30
2009,09,15,06,24,10.30
2009,09,15,06,25,10.30
2009,09,15,06,26,10.30
2009,09,15,06,27,10.30
2009,09,15,06,28,10.30
2009,09,15,06,29,10.30
2009,09,15,06,30,10.30
2009,09,15,06,31,10.30
2009,09,15,06,32,10.30
2009,09,15,06,33,10.30
2009,09,15,06,34,10.30
2009,09,15,06,35,10.30
2009,09,15,06,36,10.30
2009,09,15,06,37,10.30
2009,09,15,06,38,10.40
2009,09,15,06,39,10.40
2009,09,15,06,40,10.40
2009,09,15,06,41,10.50
2009,09,15,06,42,10.50
2009,09,15,06,43,10.50
2009,09,15,06,44,10.50
2009,09,15,06,45,10.60
2009,09,15,06,46,10.60
2009,09,15,06,47,10.60
2009,09,15,06,48,10.60
2009,09,15,06,49,10.60
2009,09,15,06,50,10.60
2009,09,15,06,51,10.60
2009,09,15,06,52,10.60
2009,09,15,06,53,10.60
2009,09,15,06,54,10.60
2009,09,15,06,55,10.60
2009,09,15,06,56,10.60
2009,09,15,06,57,10.60
2009,09,15,06,58,10.60
2009,09,15,06,59,10.60
2009,09,15,07,00,10.60
2009,09,15,07,01,10.60
2009,09,15,07,02,10.60
2009,09,15,07,03,10.60
2009,09,15,07,04,10.70
2009,09,15,07,05,10.70
2009,09,15,07,06,10.70
2009,09,15,07,07,10.70
2009,09,15,07,08,10.70
2009,09,15,07,09,10.70
2009,09,15,07,10,10.70
2009,09,15,07,11,10.60
2009,09,15,07,12,10.60
2009,09,15,07,13,10.60
2009,09,15,07,14,10.60
2009,09,15,07,15,10.60
2009,09,15,07,16,10.60
2009,09,15,07,17,10.60
2009,09,15,07,18,10.60
2009,09,15,07,19,10.60
2009,09,15,07,20,10.60
2009,09,15,07,21,10.70
2009,09,15,07,22,10.70
2009,09,15,07,23,10.70
2009,09,15,07,24,10.70
2009,09,15,07,25,10.70
2009,09,15,07,26,10.70
2009,09,15,07,27,10.70
2009,09,15,07,28,10.70
2009,09,15,07,29,10.70
2009,09,15,07,30,10.80
2009,09,15,07,31,10.80
2009,09,15,07,32,10.80
2009,09,15,07,33,10.80
2009,09,15,07,34,10.80
2009,09,15,07,35,10.80
2009,09,15,07,36,10.80
2009,09,15,07,37,10.90
2009,09,15,07,38,10.90
2009,09,15,07,39,10.90
2009,09,15,07,40,11.00
2009,09,15,07,41,11.00
2009,09,15,07,42,11.10
2009,09,15,07,43,11.10
2009,09,15,07,44,11.10
2009,09,15,07,45,11.20
2009,09,15,07,46,11.20
2009,09,15,07,47,11.20
2009,09,15,07,48,11.20
2009,09,15,07,49,11.30
2009,09,15,07,50,11.30
2009,09,15,07,51,11.30
2009,09,15,07,52,11.30
2009,09,15,07,53,11.40
2009,09,15,07,54,11.40
2009,09,15,07,55,11.40
2009,09,15,07,56,11.50
2009,09,15,07,57,11.50
2009,09,15,07,58,11.60
2009,09,15,07,59,11.60
2009,09,15,08,00,11.60
2009,09,15,08,01,11.60
2009,09,15,08,02,11.70
2009,09,15,08,03,11.70
2009,09,15,08,04,11.70
2009,09,15,08,05,11.70
2009,09,15,08,06,11.70
2009,09,15,08,07,11.70
2009,09,15,08,08,11.80
2009,09,15,08,09,11.80
2009,09,15,08,10,11.80
2009,09,15,08,11,11.90
2009,09,15,08,12,11.90
2009,09,15,08,13,11.90
2009,09,15,08,14,12.00
2009,09,15,08,15,12.00
2009,09,15,08,16,12.00
2009,09,15,08,17,12.10
2009,09,15,08,18,12.10
2009,09,15,08,19,12.10
2009,09,15,08,20,12.10
2009,09,15,08,21,12.10
2009,09,15,08,22,12.20
2009,09,15,08,23,12.20
2009,09,15,08,24,12.20
2009,09,15,08,25,12.20
2009,09,15,08,26,12.20
2009,09,15,08,27,12.20
2009,09,15,08,28,12.30
2009,09,15,08,29,12.30
2009,09,15,08,30,12.30
2009,09,15,08,31,12.30
2009,09,15,08,32,12.30
2009,09,15,08,33,12.30
2009,09,15,08,34,12.40
2009,09,15,08,35,12.40
2009,09,15,08,36,12.40
2009,09,15,08,37,12.50
2009,09,15,08,38,12.50
2009,09,15,08,39,12.60
2009,09,15,08,40,12.60
2009,09,15,08,41,12.60
2009,09,15,08,42,12.70
2009,09,15,08,43,12.70
2009,09,15,08,44,12.70
2009,09,15,08,45,12.70
2009,09,15,08,46,12.70
2009,09,15,08,47,12.70
2009,09,15,08,48,12.80
2009,09,15,08,49,12.80
2009,09,15,08,50,12.80
2009,09,15,08,51,12.80
2009,09,15,08,52,12.80
2009,09,15,08,53,12.80
2009,09,15,08,54,12.80
2009,09,15,08,55,12.80
2009,09,15,08,56,12.90
2009,09,15,08,57,12.90
2009,09,15,08,58,12.90
2009,09,15,08,59,12.90
2009,09,15,09,00,13.00
2009,09,15,09,01,13.00
2009,09,15,09,02,13.00
2009,09,15,09,03,13.10
2009,09,15,09,04,13.10
2009,09,15,09,05,13.20
2009,09,15,09,06,13.20
2009,09,15,09,07,13.20
2009,09,15,09,08,13.20
2009,09,15,09,09,13.30
2009,09,15,09,10,13.30
2009,09,15,09,11,13.30
2009,09,15,09,12,13.30
2009,09,15,09,13,13.30
2009,09,15,09,14,13.30
2009,09,15,09,15,13.30
2009,09,15,09,16,13.40
2009,09,15,09,17,13.40
2009,09,15,09,18,13.40
2009,09,15,09,19,13.40
2009,09,15,09,20,13.40
2009,09,15,09,21,13.50
2009,09,15,09,22,13.50
2009,09,15,09,23,13.50
2009,09,15,09,24,13.50
2009,09,15,09,25,13.60
2009,09,15,09,26,13.60
2009,09,15,09,27,13.60
2009,09,15,09,28,13.60
2009,09,15,09,29,13.60
2009,09,15,09,30,13.70
2009,09,15,09,31,13.70
2009,09,15,09,32,13.70
2009,09,15,09,33,13.70
2009,09,15,09,34,13.80
2009,09,15,09,35,13.80
2009,09,15,09,36,13.80
2009,09,15,09,37,13.80
2009,09,15,09,38,13.90
2009,09,15,09,39,13.90
2009,09,15,09,40,13.90
2009,09,15,09,41,13.90
2009,09,15,09,42,14.00
2009,09,15,09,43,14.00
2009,09,15,09,44,14.10
2009,09,15,09,45,14.10
2009,09,15,09,46,14.10
2009,09,15,09,47,14.20
2009,09,15,09,48,14.20
2009,09,15,09,49,14.20
2009,09,15,09,50,14.20
2009,09,15,09,51,14.30
2009,09,15,09,52,14.30
2009,09,15,09,53,14.30
2009,09,15,09,54,14.40
2009,09,15,09,55,14.40
2009,09,15,09,56,14.40
2009,09,15,09,57,14.40
2009,09,15,09,58,14.50
2009,09,15,09,59,14.50
2009,09,15,10,00,14.60
2009,09,15,10,01,14.60
2009,09,15,10,02,14.60
2009,09,15,10,03,14.60
2009,09,15,10,04,14.60
2009,09,15,10,05,14.70
2009,09,15,10,06,14.70
2009,09,15,10,07,14.60
2009,09,15,10,08,14.70
2009,09,15,10,09,14.70
2009,09,15,10,10,14.70
2009,09,15,10,11,14.70
2009,09,15,10,12,14.70
2009,09,15,10,13,14.70
2009,09,15,10,14,14.70
2009,09,15,10,15,14.70
2009,09,15,10,16,14.70
2009,09,15,10,17,14.70
2009,09,15,10,18,14.70
2009,09,15,10,19,14.70
2009,09,15,10,20,14.70
2009,09,15,10,21,14.60
2009,09,15,10,22,14.60
2009,09,15,10,23,14.60
2009,09,15,10,24,14.70
2009,09,15,10,25,14.70
2009,09,15,10,26,14.70
2009,09,15,10,27,14.70
2009,09,15,10,28,14.70
2009,09,15,10,29,14.70
2009,09,15,10,30,14.60
2009,09,15,10,31,14.60
2009,09,15,10,32,14.60
2009,09,15,10,33,14.60
2009,09,15,10,34,14.60
2009,09,15,10,35,14.60
2009,09,15,10,36,14.60
2009,09,15,10,37,14.60
2009,09,15,10,38,14.60
2009,09,15,10,39,14.60
2009,09,15,10,40,14.60
2009,09,15,10,41,14.60
2009,09,15,10,42,14.60
2009,09,15,10,43,14.60
2009,09,15,10,44,14.60
2009,09,15,10,45,14.60
2009,09,15,10,46,14.60
2009,09,15,10,47,14.60
2009,09,15,10,48,14.60
2009,09,15,10,49,14.60
2009,09,15,10,50,14.60
2009,09,15,10,51,14.60
2009,09,15,10,52,14.60
2009,09,15,10,53,14.60
2009,09,15,10,54,14.60
2009,09,15,10,55,14.60
2009,09,15,10,56,14.60
2009,09,15,10,57,14.60
2009,09,15,10,58,14.60
2009,09,15,10,59,14.60
2009,09,15,11,00,14.50
2009,09,15,11,01,14.50
2009,09,15,11,02,14.50
2009,09,15,11,03,14.50
2009,09,15,11,04,14.50
2009,09,15,11,05,14.50
2009,09,15,11,06,14.50
2009,09,15,11,07,14.50
2009,09,15,11,08,14.50
2009,09,15,11,09,14.50
2009,09,15,11,10,14.50
2009,09,15,11,11,14.60
2009,09,15,11,12,14.60
2009,09,15,11,13,14.60
2009,09,15,11,14,14.50
2009,09,15,11,15,14.50
2009,09,15,11,16,14.50
2009,09,15,11,17,14.50
2009,09,15,11,18,14.50
2009,09,15,11,19,14.50
2009,09,15,11,20,14.50
2009,09,15,11,21,14.60
2009,09,15,11,22,14.60
2009,09,15,11,23,14.70
2009,09,15,11,24,14.70
2009,09,15,11,25,14.70
2009,09,15,11,26,14.80
2009,09,15,11,27,14.90
2009,09,15,11,28,14.90
2009,09,15,11,29,15.00
2009,09,15,11,30,15.00
2009,09,15,11,31,15.00
2009,09,15,11,32,15.00
2009,09,15,11,33,15.00
2009,09,15,11,34,15.00
2009,09,15,11,35,15.00
2009,09,15,11,36,15.00
2009,09,15,11,37,15.00
2009,09,15,11,38,15.00
2009,09,15,11,39,15.00
2009,09,15,11,40,15.00
2009,09,15,11,41,15.00
2009,09,15,11,42,15.00
2009,09,15,11,43,15.00
2009,09,15,11,44,15.00
2009,09,15,11,45,15.00
2009,09,15,11,46,15.00
2009,09,15,11,47,15.00
2009,09,15,11,48,15.00
2009,09,15,11,49,15.10
2009,09,15,11,50,15.20
2009,09,15,11,51,15.30
2009,09,15,11,52,15.30
2009,09,15,11,53,15.30
2009,09,15,11,54,15.40
2009,09,15,11,55,15.40
2009,09,15,11,56,15.40
2009,09,15,11,57,15.40
2009,09,15,11,58,15.50
2009,09,15,11,59,15.40
2009,09,15,12,00,15.40
2009,09,15,12,01,15.40
2009,09,15,12,02,15.40
2009,09,15,12,03,15.30
2009,09,15,12,04,15.20
2009,09,15,12,05,15.10
2009,09,15,12,06,15.00
2009,09,15,12,07,15.00
2009,09,15,12,08,15.00
2009,09,15,12,09,14.90
2009,09,15,12,10,14.90
2009,09,15,12,11,14.90
2009,09,15,12,12,15.00
2009,09,15,12,13,15.00
2009,09,15,12,14,15.00
2009,09,15,12,15,15.00
2009,09,15,12,16,15.10
2009,09,15,12,17,15.20
2009,09,15,12,18,15.30
2009,09,15,12,19,15.40
2009,09,15,12,20,15.50
2009,09,15,12,21,15.60
2009,09,15,12,22,15.70
2009,09,15,12,23,15.80
2009,09,15,12,24,15.90
2009,09,15,12,25,16.00
2009,09,15,12,26,16.00
2009,09,15,12,27,16.10
2009,09,15,12,28,16.10
2009,09,15,12,29,16.10
2009,09,15,12,30,16.00
2009,09,15,12,31,16.00
2009,09,15,12,32,15.90
2009,09,15,12,33,15.90
2009,09,15,12,34,15.90
2009,09,15,12,35,15.80
2009,09,15,12,36,15.80
2009,09,15,12,37,15.80
2009,09,15,12,38,15.80
2009,09,15,12,39,15.80
2009,09,15,12,40,15.80
2009,09,15,12,41,15.80
2009,09,15,12,42,15.80
2009,09,15,12,43,15.90
2009,09,15,12,44,15.90
2009,09,15,12,45,15.90
2009,09,15,12,46,16.00
2009,09,15,12,47,16.10
2009,09,15,12,48,16.10
2009,09,15,12,49,16.20
2009,09,15,12,50,16.30
2009,09,15,12,51,16.50
2009,09,15,12,52,16.60
2009,09,15,12,53,16.70
2009,09,15,12,54,16.90
2009,09,15,12,55,17.00
2009,09,15,12,56,17.10
2009,09,15,12,57,17.20
2009,09,15,12,58,17.30
2009,09,15,12,59,17.40
2009,09,15,13,00,17.40
2009,09,15,13,01,17.40
2009,09,15,13,02,17.40
2009,09,15,13,03,17.50
2009,09,15,13,04,17.60
2009,09,15,13,05,17.60
2009,09,15,13,06,17.70
2009,09,15,13,07,17.70
2009,09,15,13,08,17.80
2009,09,15,13,09,17.80
2009,09,15,13,10,17.90
2009,09,15,13,11,17.90
2009,09,15,13,12,17.90
2009,09,15,13,13,17.90
2009,09,15,13,14,17.90
2009,09,15,13,15,17.90
2009,09,15,13,16,17.90
2009,09,15,13,17,17.90
2009,09,15,13,18,18.00
2009,09,15,13,19,18.00
2009,09,15,13,20,18.00
2009,09,15,13,21,18.10
2009,09,15,13,22,18.10
2009,09,15,13,23,18.10
2009,09,15,13,24,18.10
2009,09,15,13,25,18.10
2009,09,15,13,26,18.10
2009,09,15,13,27,18.10
2009,09,15,13,28,18.10
2009,09,15,13,29,18.10
2009,09,15,13,30,18.10
2009,09,15,13,31,18.10
2009,09,15,13,32,18.20
2009,09,15,13,33,18.20
2009,09,15,13,34,18.20
2009,09,15,13,35,18.30
2009,09,15,13,36,18.40
2009,09,15,13,37,18.50
2009,09,15,13,38,18.60
2009,09,15,13,39,18.70
2009,09,15,13,40,18.80
2009,09,15,13,41,18.80
2009,09,15,13,42,18.90
2009,09,15,13,43,18.90
2009,09,15,13,44,18.90
2009,09,15,13,45,19.00
2009,09,15,13,46,19.00
2009,09,15,13,47,19.10
2009,09,15,13,48,19.10
2009,09,15,13,49,19.10
2009,09,15,13,50,19.10
2009,09,15,13,51,19.20
2009,09,15,13,52,19.20
2009,09,15,13,53,19.20
2009,09,15,13,54,19.20
2009,09,15,13,55,19.20
2009,09,15,13,56,19.20
2009,09,15,13,57,19.20
2009,09,15,13,58,19.20
2009,09,15,13,59,19.20
2009,09,15,14,00,19.20
2009,09,15,14,01,19.20
2009,09,15,14,02,19.30
2009,09,15,14,03,19.30
2009,09,15,14,04,19.40
2009,09,15,14,05,19.40
2009,09,15,14,06,19.50
2009,09,15,14,07,19.60
2009,09,15,14,08,19.60
2009,09,15,14,09,19.60
2009,09,15,14,10,19.70
2009,09,15,14,11,19.70
2009,09,15,14,12,19.60
2009,09,15,14,13,19.60
2009,09,15,14,14,19.50
2009,09,15,14,15,19.50
2009,09,15,14,16,19.40
2009,09,15,14,17,19.50
2009,09,15,14,18,19.50
2009,09,15,14,19,19.50
2009,09,15,14,20,19.50
2009,09,15,14,21,19.50
2009,09,15,14,22,19.40
2009,09,15,14,23,19.40
2009,09,15,14,24,19.30
2009,09,15,14,25,19.30
2009,09,15,14,26,19.40
2009,09,15,14,27,19.30
2009,09,15,14,28,19.40
2009,09,15,14,29,19.40
2009,09,15,14,30,19.50
2009,09,15,14,31,19.60
2009,09,15,14,32,19.60
2009,09,15,14,33,19.70
2009,09,15,14,34,19.80
2009,09,15,14,35,19.80
2009,09,15,14,36,19.80
2009,09,15,14,37,19.80
2009,09,15,14,38,19.80
2009,09,15,14,39,19.80
2009,09,15,14,40,19.80
2009,09,15,14,41,19.90
2009,09,15,14,42,19.90
2009,09,15,14,43,20.00
2009,09,15,14,44,20.00
2009,09,15,14,45,20.10
2009,09,15,14,46,20.10
2009,09,15,14,47,20.10
2009,09,15,14,48,20.10
2009,09,15,14,49,20.10
2009,09,15,14,50,20.10
2009,09,15,14,51,20.10
2009,09,15,14,52,20.10
2009,09,15,14,53,20.10
2009,09,15,14,54,20.20
2009,09,15,14,55,20.20
2009,09,15,14,56,20.20
2009,09,15,14,57,20.20
2009,09,15,14,58,20.20
2009,09,15,14,59,20.10
2009,09,15,15,00,20.10
2009,09,15,15,01,20.10
2009,09,15,15,02,20.10
2009,09,15,15,03,20.10
2009,09,15,15,04,20.10
2009,09,15,15,05,20.10
2009,09,15,15,06,20.20
2009,09,15,15,07,20.20
2009,09,15,15,08,20.30
2009,09,15,15,09,20.30
2009,09,15,15,10,20.40
2009,09,15,15,11,20.30
2009,09,15,15,12,20.30
2009,09,15,15,13,20.30
2009,09,15,15,14,20.20
2009,09,15,15,15,20.10
2009,09,15,15,16,20.00
2009,09,15,15,17,20.00
2009,09,15,15,18,20.00
2009,09,15,15,19,20.00
2009,09,15,15,20,20.00
2009,09,15,15,21,20.10
2009,09,15,15,22,20.10
2009,09,15,15,23,20.10
2009,09,15,15,24,20.10
2009,09,15,15,25,20.10
2009,09,15,15,26,20.00
2009,09,15,15,27,20.00
2009,09,15,15,28,19.90
2009,09,15,15,29,19.90
2009,09,15,15,30,19.90
2009,09,15,15,31,19.90
2009,09,15,15,32,19.90
2009,09,15,15,33,19.90
2009,09,15,15,34,20.00
2009,09,15,15,35,20.10
2009,09,15,15,36,20.10
2009,09,15,15,37,20.10
2009,09,15,15,38,20.10
2009,09,15,15,39,20.10
2009,09,15,15,40,20.10
2009,09,15,15,41,20.10
2009,09,15,15,42,20.20
2009,09,15,15,43,20.20
2009,09,15,15,44,20.20
2009,09,15,15,45,20.20
2009,09,15,15,46,20.20
2009,09,15,15,47,20.20
2009,09,15,15,48,20.30
2009,09,15,15,49,20.30
2009,09,15,15,50,20.30
2009,09,15,15,51,20.40
2009,09,15,15,52,20.40
2009,09,15,15,53,20.40
2009,09,15,15,54,20.40
2009,09,15,15,55,20.40
2009,09,15,15,56,20.30
2009,09,15,15,57,20.30
2009,09,15,15,58,20.20
2009,09,15,15,59,20.20
2009,09,15,16,00,20.20
2009,09,15,16,01,20.20
2009,09,15,16,02,20.20
2009,09,15,16,03,20.20
2009,09,15,16,04,20.20
2009,09,15,16,05,20.20
2009,09,15,16,06,20.30
2009,09,15,16,07,20.30
2009,09,15,16,08,20.30
2009,09,15,16,09,20.30
2009,09,15,16,10,20.30
2009,09,15,16,11,20.30
2009,09,15,16,12,20.30
2009,09,15,16,13,20.30
2009,09,15,16,14,20.30
2009,09,15,16,15,20.30
2009,09,15,16,16,20.30
2009,09,15,16,17,20.30
2009,09,15,16,18,20.40
2009,09,15,16,19,20.40
2009,09,15,16,20,20.40
2009,09,15,16,21,20.40
2009,09,15,16,22,20.50
2009,09,15,16,23,20.50
2009,09,15,16,24,20.50
2009,09,15,16,25,20.50
2009,09,15,16,26,20.60
2009,09,15,16,27,20.60
2009,09,15,16,28,20.60
2009,09,15,16,29,20.60
2009,09,15,16,30,20.60
2009,09,15,16,31,20.60
2009,09,15,16,32,20.60
2009,09,15,16,33,20.60
2009,09,15,16,34,20.60
2009,09,15,16,35,20.50
2009,09,15,16,36,20.50
2009,09,15,16,37,20.50
2009,09,15,16,38,20.50
2009,09,15,16,39,20.50
2009,09,15,16,40,20.50
2009,09,15,16,41,20.50
2009,09,15,16,42,20.50
2009,09,15,16,43,20.40
2009,09,15,16,44,20.40
2009,09,15,16,45,20.40
2009,09,15,16,46,20.40
2009,09,15,16,47,20.40
2009,09,15,16,48,20.40
2009,09,15,16,49,20.50
2009,09,15,16,50,20.50
2009,09,15,16,51,20.50
2009,09,15,16,52,20.50
2009,09,15,16,53,20.50
2009,09,15,16,54,20.60
2009,09,15,16,55,20.60
2009,09,15,16,56,20.60
2009,09,15,16,57,20.60
2009,09,15,16,58,20.60
2009,09,15,16,59,20.60
2009,09,15,17,00,20.60
2009,09,15,17,01,20.60
2009,09,15,17,02,20.60
2009,09,15,17,03,20.50
2009,09,15,17,04,20.50
2009,09,15,17,05,20.50
2009,09,15,17,06,20.50
2009,09,15,17,07,20.50
2009,09,15,17,08,20.50
2009,09,15,17,09,20.50
2009,09,15,17,10,20.60
2009,09,15,17,11,20.60
2009,09,15,17,12,20.60
2009,09,15,17,13,20.60
2009,09,15,17,14,20.60
2009,09,15,17,15,20.60
2009,09,15,17,16,20.60
2009,09,15,17,17,20.60
2009,09,15,17,18,20.60
2009,09,15,17,19,20.60
2009,09,15,17,20,20.60
2009,09,15,17,21,20.70
2009,09,15,17,22,20.60
2009,09,15,17,23,20.60
2009,09,15,17,24,20.60
2009,09,15,17,25,20.60
2009,09,15,17,26,20.60
2009,09,15,17,27,20.60
2009,09,15,17,28,20.60
2009,09,15,17,29,20.60
2009,09,15,17,30,20.60
2009,09,15,17,31,20.60
2009,09,15,17,32,20.60
2009,09,15,17,33,20.60
2009,09,15,17,34,20.60
2009,09,15,17,35,20.60
2009,09,15,17,36,20.60
2009,09,15,17,37,20.60
2009,09,15,17,38,20.60